sat.trackr.live / text

‹ back to catalog

STARLINK-4726

NORAD 53802 · 2022-111AF

PAYLOAD ACTIVE UNKNOWN

§ Identity

Operator
Country
US
Launch date
2022-09-11
Launch site
AFETR
Launch vehicle
Mass (kg)
RCS (m²)

Purposes: comms

External: N2YO · Heavens-Above · Gunter

§ Orbital elements

Epoch: 2026-09-20T20:52:29.321184Z

Period
93.85 min
Inclination
53.1591°
Eccentricity
0.0001140
Mean motion
15.34387131 rev/d
Perigee alt
462.0 km
Apogee alt
463.5 km
Semi-major
6,840.9 km
B*
3.1006e-5
RAAN
91.7036°
Arg perigee
83.8456°
Mean anomaly
276.2676°
Rev number
22,350

§ Raw data

STARLINK-47261 53802U 22111AF  26263.86978381  .00000671  00000+0  31006-4 0  99912 53802  53.1591  91.7036 0001140  83.8456 276.2676 15.34387131223504

JSON: /api/v1/satellites/53802 · /tle

For live sub-satellite position, see the globe view (requires WebGL).

§ Visibility from observer

Set your observer location to see the next 7 days of passes ≥ 10°. The values pass through the URL so the page stays shareable.

No JS? Fill the form by hand. The geolocation button needs JavaScript.